Massena, NY

3:24 AM EDT on April 26, 2018 (GMT -0400)
Massena International-Richards

Weather History for KMSS - March, 2013

Change the Weather History Date:

Tuesday, March 19, 2013

  Actual Average Record
Temperature  
Mean Temperature 30 °F 29 °F  
Max Temperature 35 °F 39 °F 77 °F (2012)
Min Temperature 24 °F 20 °F -15 °F (1993)
Degree Days  
Heating Degree Days 35 36  
Month to date heating degree days 707 755  
Since 1 July heating degree days 6157 6742  
Cooling Degree Days 0 0  
Month to date cooling degree days 0 0  
Year to date cooling degree days 0 0  
Moisture  
Dew Point 27 °F    
Average Humidity 89    
Maximum Humidity 100    
Minimum Humidity 78    
Precipitation  
Precipitation 0.16 in 0.06 in 0.47 in (2008)
Month to date precipitation 0.36 1.23  
Year to date precipitation 2.61 5.18  
Sea Level Pressure  
Sea Level Pressure 29.80 in    
Wind  
Wind Speed 8 mph (ENE)    
Max Wind Speed 18 mph    
Max Gust Speed 31 mph    
Visibility 3 miles    
Events Fog , Snow    
T = Trace of Precipitation, MM = Missing Value Source: NWS Daily Summary

Daily Weather History Graph

Daily Weather History Graph

Search for Another Location

Airport or City:

Astronomy

Mar. 19, 2013 Rise Set
Actual Time 7:03 AM EDT 7:10 PM EDT
Civil Twilight 6:34 AM EDT 7:40 PM EDT
Nautical Twilight 6:00 AM EDT 8:14 PM EDT
Astronomical Twilight 5:25 AM EDT 8:49 PM EDT
Moon 11:37 AM EDT (3/19) 2:10 AM EDT (3/19)
Length of Visible Light 13h 05m
Length of Day
12h 06m
Waxing Crescent, 49% of the Moon is Illuminated
Mar 19
Waxing Crescent
Mar 19
First Quarter
Mar 27
Full
Apr 3
Last Quarter
Apr 10
New

Hourly Weather History & Observations

Time (EDT) Temp. Windchill Dew Point Humidity Pressure Visibility Wind Dir Wind Speed Gust Speed Precip Events Conditions
12:53 AM 24.1 °F 11.5 °F 19.9 °F 84% 29.98 in 3.0 mi ENE 15.0 mph - 0.00 in Snow Light Snow
12:59 AM 24.8 °F 13.4 °F 19.4 °F 80% 29.95 in 1.8 mi ENE 12.7 mph - 0.00 in Snow Light Snow
1:04 AM 24.8 °F 11.9 °F 19.4 °F 80% 29.95 in 1.2 mi ENE 16.1 mph - 0.00 in Snow Light Snow
1:45 AM 24.8 °F 12.9 °F 21.2 °F 86% 29.92 in 1.8 mi ENE 13.8 mph - 0.00 in Snow Light Snow
1:53 AM 25.0 °F 12.2 °F 21.9 °F 88% 29.94 in 1.5 mi ENE 16.1 mph - 0.01 in Snow Light Snow
2:01 AM 24.8 °F 11.9 °F 21.2 °F 86% 29.91 in 1.0 mi ENE 16.1 mph - 0.00 in Snow Light Snow
2:09 AM 24.8 °F 11.5 °F 21.2 °F 86% 29.90 in 0.8 mi ENE 17.3 mph - N/A Snow Light Snow
2:53 AM 26.1 °F 15.0 °F 24.1 °F 92% 29.89 in 0.8 mi ENE 12.7 mph - 0.02 in Snow Light Snow
3:46 AM 26.6 °F 16.2 °F 24.8 °F 93% 29.84 in 1.0 mi ENE 11.5 mph - 0.02 in Snow Light Snow
3:53 AM 27.0 °F 16.1 °F 25.0 °F 92% 29.85 in 1.0 mi ENE 12.7 mph - 0.02 in Snow Light Snow
4:02 AM 26.6 °F 15.7 °F 24.8 °F 93% 29.83 in 1.2 mi ENE 12.7 mph - 0.01 in Snow Light Snow
4:09 AM 26.6 °F 16.2 °F 24.8 °F 93% 29.83 in 1.5 mi ENE 11.5 mph - 0.01 in Snow Light Snow
4:14 AM 28.4 °F 18.5 °F 24.8 °F 86% 29.82 in 2.0 mi ENE 11.5 mph - 0.01 in Snow Light Snow
4:18 AM 28.4 °F 18.5 °F 24.8 °F 86% 29.82 in 3.0 mi ENE 11.5 mph - 0.01 in Snow Light Snow
4:32 AM 28.4 °F 18.5 °F 26.6 °F 93% 29.81 in 1.8 mi ENE 11.5 mph - 0.01 in Snow Light Snow
4:44 AM 28.4 °F 19.1 °F 26.6 °F 93% 29.81 in 1.0 mi ENE 10.4 mph - 0.01 in Snow Light Snow
4:53 AM 28.0 °F 18.6 °F 26.1 °F 92% 29.83 in 1.5 mi ENE 10.4 mph - 0.01 in Snow Light Snow
5:02 AM 28.4 °F 19.7 °F 26.6 °F 93% 29.81 in 2.5 mi ENE 9.2 mph - 0.00 in Snow Light Snow
5:23 AM 28.4 °F 21.2 °F 26.6 °F 93% 29.80 in 2.0 mi East 6.9 mph - 0.01 in Snow Light Snow
5:40 AM 28.4 °F 22.2 °F 26.6 °F 93% 29.80 in 2.5 mi East 5.8 mph - 0.01 in Snow Light Snow
5:48 AM 28.4 °F 23.3 °F 26.6 °F 93% 29.80 in 4.0 mi East 4.6 mph - 0.01 in Snow Light Snow
5:53 AM 28.9 °F 22.8 °F 27.0 °F 92% 29.81 in 4.0 mi ENE 5.8 mph - 0.01 in Snow Light Snow
6:21 AM 28.4 °F 21.2 °F 26.6 °F 93% 29.80 in 2.0 mi ENE 6.9 mph - 0.00 in Snow Light Snow
6:35 AM 28.4 °F 20.4 °F 26.6 °F 93% 29.80 in 2.5 mi ENE 8.1 mph - 0.00 in Snow Light Snow
6:53 AM 28.9 °F 23.9 °F 27.0 °F 92% 29.82 in 2.5 mi East 4.6 mph - 0.01 in Snow Light Snow
7:00 AM 28.4 °F 23.3 °F 28.4 °F 100% 29.80 in 3.0 mi ENE 4.6 mph - 0.00 in Snow Light Snow
7:06 AM 28.4 °F 20.4 °F 26.6 °F 93% 29.80 in 2.5 mi ENE 8.1 mph - 0.00 in Snow Light Snow
7:13 AM 28.4 °F 22.2 °F 26.6 °F 93% 29.80 in 1.2 mi ENE 5.8 mph - 0.00 in Snow Light Snow
7:19 AM 28.4 °F 22.2 °F 26.6 °F 93% 29.80 in 1.5 mi NE 5.8 mph - 0.00 in Snow Light Snow
7:30 AM 28.4 °F 21.2 °F 26.6 °F 93% 29.80 in 2.0 mi NE 6.9 mph - 0.00 in Snow Light Snow
7:45 AM 28.4 °F 22.2 °F 26.6 °F 93% 29.80 in 1.2 mi ENE 5.8 mph - 0.00 in Snow Light Snow
7:53 AM 28.9 °F 22.8 °F 28.0 °F 96% 29.82 in 0.5 mi ENE 5.8 mph - 0.00 in Fog , Snow Snow
8:05 AM 28.4 °F 22.2 °F 28.4 °F 100% 29.80 in 0.2 mi ENE 5.8 mph - 0.02 in Fog , Snow Heavy Snow
8:35 AM 28.4 °F 23.3 °F 28.4 °F 100% 29.80 in 1.0 mi ENE 4.6 mph - 0.03 in Snow Light Snow
8:43 AM 30.2 °F 26.7 °F 28.4 °F 93% 29.80 in 0.8 mi ENE 3.5 mph - 0.03 in Snow Light Snow
8:53 AM 30.0 °F 26.5 °F 28.0 °F 92% 29.81 in 0.8 mi ENE 3.5 mph - 0.04 in Snow Light Snow
8:57 AM 30.2 °F - 28.4 °F 93% 29.79 in 1.0 mi Calm Calm - 0.00 in Snow Light Snow
9:04 AM 30.2 °F 26.7 °F 28.4 °F 93% 29.79 in 1.5 mi NE 3.5 mph - 0.00 in Snow Light Snow
9:23 AM 30.2 °F 25.4 °F 28.4 °F 93% 29.79 in 1.2 mi ENE 4.6 mph - 0.00 in Snow Light Snow
9:28 AM 30.2 °F 24.3 °F 28.4 °F 93% 29.79 in 0.8 mi ENE 5.8 mph - 0.00 in Snow Light Snow
9:40 AM 30.2 °F 24.3 °F 28.4 °F 93% 29.79 in 1.2 mi ENE 5.8 mph - 0.00 in Snow Light Snow
9:49 AM 30.2 °F 24.3 °F 28.4 °F 93% 29.79 in 2.0 mi ENE 5.8 mph - 0.00 in Snow Light Snow
9:53 AM 30.0 °F 24.1 °F 28.0 °F 92% 29.81 in 2.0 mi ENE 5.8 mph - 0.00 in Snow Light Snow
9:58 AM 30.2 °F 23.4 °F 28.4 °F 93% 29.79 in 1.2 mi ENE 6.9 mph - 0.01 in Snow Light Snow
10:09 AM 30.2 °F 24.3 °F 28.4 °F 93% 29.78 in 2.0 mi ENE 5.8 mph - 0.01 in Snow Light Snow
10:20 AM 30.2 °F 24.3 °F 28.4 °F 93% 29.79 in 4.0 mi ENE 5.8 mph - 0.01 in Snow Light Snow
10:46 AM 30.2 °F 24.3 °F 30.2 °F 100% 29.78 in 7.0 mi ENE 5.8 mph - 0.01 in   Overcast
10:53 AM 32.0 °F 26.4 °F 28.9 °F 88% 29.80 in 4.0 mi ENE 5.8 mph - 0.01 in Snow Light Snow
11:53 AM 33.1 °F 26.1 °F 30.0 °F 89% 29.79 in 10.0 mi ENE 8.1 mph - 0.00 in   Overcast
12:53 PM 34.0 °F 28.0 °F 30.9 °F 89% 29.77 in 10.0 mi East 6.9 mph - N/A   Overcast
1:53 PM 34.0 °F 28.0 °F 30.0 °F 85% 29.74 in 10.0 mi ENE 6.9 mph - N/A   Overcast
2:53 PM 34.0 °F 27.2 °F 30.9 °F 89% 29.73 in 10.0 mi ENE 8.1 mph - N/A   Overcast
3:53 PM 35.1 °F 30.1 °F 30.9 °F 85% 29.73 in 7.0 mi East 5.8 mph - 0.00 in Snow Light Snow
4:33 PM 35.6 °F 32.8 °F 30.2 °F 81% 29.70 in 6.0 mi ESE 3.5 mph - 0.00 in Snow Light Snow
4:53 PM 35.1 °F 31.0 °F 30.9 °F 85% 29.72 in 4.0 mi SE 4.6 mph - 0.00 in Snow Light Snow
5:35 PM 35.6 °F - 32.0 °F 87% 29.70 in 8.0 mi Calm Calm - 0.01 in Snow Light Snow
5:50 PM 33.8 °F - 30.2 °F 87% 29.70 in 4.0 mi Calm Calm - 0.01 in Snow Light Snow
5:53 PM 34.0 °F - 32.0 °F 92% 29.72 in 5.0 mi Calm Calm - 0.01 in Snow Light Snow
6:11 PM 35.6 °F - 32.0 °F 87% 29.70 in 10.0 mi Calm Calm - 0.00 in   Overcast
6:50 PM 33.8 °F 23.2 °F 32.0 °F 93% 29.71 in 1.2 mi SSW 17.3 mph 26.5 mph 0.01 in Snow Light Snow
6:53 PM 33.1 °F 21.9 °F 30.0 °F 89% 29.73 in 0.5 mi SW 18.4 mph 26.5 mph 0.02 in Fog , Snow Snow
7:07 PM 32.0 °F 20.8 °F 28.4 °F 87% 29.72 in 0.2 mi West 17.3 mph 31.1 mph 0.00 in Fog , Snow Heavy Snow
7:14 PM 32.0 °F 22.5 °F 30.2 °F 93% 29.73 in 1.0 mi West 12.7 mph - 0.00 in Snow Light Snow
7:19 PM 32.0 °F 23.0 °F 30.2 °F 93% 29.73 in 2.0 mi West 11.5 mph - 0.00 in Snow Light Snow
7:24 PM 32.0 °F 24.8 °F 30.2 °F 93% 29.73 in 3.0 mi West 8.1 mph - 0.00 in Snow Light Snow
7:37 PM 32.0 °F 27.5 °F 30.2 °F 93% 29.73 in 4.0 mi WSW 4.6 mph - 0.00 in Snow Light Snow
7:53 PM 32.0 °F 27.5 °F 30.0 °F 92% 29.76 in 3.0 mi SW 4.6 mph - 0.00 in Snow Light Snow
8:04 PM 32.0 °F 27.5 °F 28.4 °F 87% 29.74 in 7.0 mi SW 4.6 mph - 0.00 in   Overcast
8:53 PM 32.0 °F 24.8 °F 28.0 °F 85% 29.77 in 9.0 mi SW 8.1 mph - 0.00 in   Overcast
9:53 PM 30.9 °F 21.2 °F 25.0 °F 79% 29.77 in 10.0 mi SW 12.7 mph - N/A   Overcast
10:53 PM 30.0 °F 21.1 °F 24.1 °F 79% 29.77 in 10.0 mi SW 10.4 mph - N/A   Overcast
11:53 PM 28.9 °F 19.8 °F 24.1 °F 82% 29.77 in 10.0 mi SW 10.4 mph - N/A   Overcast